This demonstration page uses our WeatherBlox Daily Observations layout. Learn more.

Left ArrowRight Arrow

Hourly Observations for December 22, 2015

Temp ( °F °C ) Dew Point ( °F °C ) Humidity (%) Winds ( mph kmh ) Pressure ( in mb ) Visibility ( mi km ) Precip ( " mm )
12:53 am 00:53 Cloudy with Light Rain 53 11.7 51 10.6 93 93 NNE 3 6 30.05 1018 5 8 0.03 0.76
1:53 am 01:53 Cloudy with Light Rain 53 11.7 51 10.6 93 93 NNE 5 7 30.03 1017 4 6 0.03 0.76
2:13 am 02:13 Cloudy with Light Rain 53 11.7 51 10.6 93 93 NNE 3 6 30.03 1017 5 8 0.01 0.25
2:53 am 02:53 Cloudy with Light Rain 53 11.7 51 10.6 93 93 Calm 30.02 1017 4 6 0.04 1.02
3:22 am 03:22 Cloudy with Light Rain 54 12 52 11 94 94 Calm 30.00 1016 4 6 0.00 0.00
3:42 am 03:42 Cloudy with Light Rain 53 11.7 52 11.1 96 96 W 6 9 29.97 1015 6 10 0.04 1.02
3:53 am 03:53 Cloudy with Light Rain 55 12.8 53 11.7 93 93 VRB 5 7 29.93 1014 5 8 0.04 1.02
4:53 am 04:53 Cloudy with Light Rain 56 13.3 54 12.2 93 93 Calm 29.96 1015 10 16 0.00 0.03
5:53 am 05:53 Cloudy with Mist and Fog 56 13.3 54 12.2 93 93 Calm 29.97 1015 6 10 0.00 0.03
6:53 am 06:53 Cloudy with Mist and Fog 56 13.3 54 12.2 93 93 Calm 29.99 1016 4 6 0.00 0.00
7:53 am 07:53 Cloudy with Mist and Fog 56 13.3 54 12.2 93 93 Calm 29.99 1016 5 8 0.00 0.00
8:53 am 08:53 Cloudy with Mist and Fog 57 13.9 55 12.8 93 93 Calm 30.00 1016 5 8 0.00 0.00
9:53 am 09:53 Cloudy with Mist and Fog 59 15 57 13.9 93 93 Calm 30.01 1016 6 10 0.00 0.00
10:53 am 10:53 Cloudy 62 16.7 59 15 90 90 VRB 3 6 30.01 1016 10 16 0.00 0.00
11:53 am 11:53 Cloudy 63 17.2 59 15 87 87 Calm 29.99 1016 10 16 0.00 0.00
12:53 pm 12:53 Cloudy 63 17.2 59 15 87 87 E 3 6 29.96 1015 10 16 0.00 0.00
1:53 pm 13:53 Cloudy 64 17.8 59 15 84 84 Calm 29.94 1014 10 16 0.00 0.00
2:00 pm 14:00 Cloudy 64 18 59 15 83 83 Calm 29.97 1015 10 16 0.00 0.00
2:53 pm 14:53 Cloudy 64 17.8 59 15 84 84 ESE 6 9 29.93 1014 10 16 0.00 0.00
3:42 pm 15:42 Cloudy 63 17 61 16 94 94 ESE 3 6 29.94 1014 9 14 0.00 0.00
3:53 pm 15:53 Cloudy with Mist and Fog 63 17.2 60 15.6 90 90 Calm 29.92 1013 4 6 0.00 0.00
4:38 pm 16:38 Cloudy with Mist and Fog 63 17 61 16 94 94 Calm 29.94 1014 3 4 0.00 0.00
4:53 pm 16:53 Cloudy with Mist and Fog 63 17.2 61 16.1 93 93 Calm 29.94 1014 3 4 0.00 0.00
5:53 pm 17:53 Cloudy with Mist and Fog 62 16.7 60 15.6 93 93 VRB 3 6 29.93 1014 6 10 0.00 0.00
6:53 pm 18:53 Cloudy with Mist and Fog 62 16.7 60 15.6 93 93 Calm 29.96 1015 6 10 0.00 0.00
7:53 pm 19:53 Cloudy with Mist and Fog 62 16.7 59 15 90 90 E 3 6 29.96 1015 6 10 0.00 0.00
8:53 pm 20:53 Cloudy with Mist and Fog 61 16.1 59 15 93 93 SE 5 7 29.98 1015 5 8 0.00 0.00
9:32 pm 21:32 Cloudy with Mist and Fog 61 16 59 15 94 94 Calm 29.97 1015 3 4 0.00 0.00
9:53 pm 21:53 Cloudy with Mist and Fog 60 15.6 59 15 96 96 ESE 5 7 29.96 1015 2 2 0.00 0.00
10:53 pm 22:53 Cloudy with Mist and Fog 61 16.1 59 15 93 93 ESE 3 6 29.95 1014 2 2 0.00 0.00
11:00 pm 23:00 Cloudy with Mist and Fog 61 16 59 15 94 94 SE 5 7 29.97 1015 4 6 0.00 0.00
11:26 pm 23:26 Cloudy with Light Rain 61 16 59 15 94 94 SE 6 9 29.97 1015 7 11 0.00 0.00
11:53 pm 23:53 Cloudy with Light Rain 62 16.7 59 15 90 90 SE 6 9 29.94 1014 9 14 0.01 0.25

Powered by AerisWeather